RH
4 4 3 5 4 5 4 2 3 2 8 13 18 25 17 27 49 46 53 66 79 92 85 83 93 96 99 96 94 98 99 97 83 76 72 51 37 35 28 20 14 10 7 6 7 7 6 6 7 10 12 12 10 8 7 7 7 6 7 7 8 8 8 7 6 6 6 7 11 15 16 15 11 9 11 13 14 15 15 15 14 13 12 11 10 9
5 4 4 5 5 6 4 3 4 2 8 11 16 26 16 35 69 61 59 70 76 92 93 85 87 90 94 91 91 94 96 100 94 90 87 63 44 40 34 29 23 16 12 9 8 8 8 6 6 8 10 11 10 9 7 7 7 7 7 7 7 8 8 7 6 6 6 6 7 10 13 14 12 10 9 11 13 15 16 15 14 13 13 12 10 9
5 5 5 6 5 6 5 3 4 2 8 11 16 25 16 40 84 80 71 76 76 92 99 93 91 91 91 85 85 87 89 97 95 94 93 71 52 47 39 34 29 25 22 16 11 10 10 8 7 7 7 9 10 11 9 8 7 7 7 7 7 7 7 8 7 7 7 7 7 7 9 11 11 10 9 9 11 14 16 16 15 13 12 12 11 10
7 6 5 6 5 5 5 4 4 3 7 12 17 22 18 44 91 95 81 80 85 97 98 95 95 94 93 86 81 79 81 92 94 95 96 79 62 56 47 38 35 33 30 23 15 12 11 10 8 7 7 7 8 10 11 9 8 7 7 7 7 7 7 7 8 8 7 7 7 7 7 8 9 10 9 9 9 11 14 15 15 14 12 11 11 11
8 7 6 6 6 6 6 4 4 4 7 13 19 22 20 46 90 102 91 85 90 100 98 95 93 91 95 92 82 74 74 86 92 96 101 92 77 71 61 45 38 37 33 27 19 13 12 11 9 7 7 7 7 8 10 10 9 8 7 7 7 7 7 7 8 8 8 7 7 6 7 7 7 8 8 8 9 9 11 14 14 13 12 11 11 11
10 8 6 6 6 6 6 5 5 4 8 15 23 24 20 42 83 100 97 93 92 97 99 95 94 93 95 94 83 72 72 80 84 88 97 100 92 87 78 59 44 38 35 31 23 15 11 9 8 8 7 8 7 7 7 9 10 9 8 8 8 7 7 7 8 8 8 8 8 8 8 8 8 8 8 8 9 9 9 11 12 12 12 12 11 11
12 9 7 6 6 6 6 6 6 4 7 15 26 30 21 34 75 96 98 99 95 96 97 92 95 97 93 91 83 74 74 76 76 77 86 97 97 93 87 72 55 46 40 38 31 20 14 10 7 7 8 8 8 8 7 7 10 10 9 8 8 8 8 8 8 8 8 8 9 10 12 13 11 9 9 9 9 9 9 9 10 11 11 11 11 11
14 11 9 7 6 6 6 6 6 5 6 14 26 34 26 28 64 96 100 97 95 96 96 93 93 93 89 87 82 78 80 80 78 76 78 89 97 95 89 80 69 59 50 45 40 32 23 17 11 7 7 8 8 9 8 7 8 9 10 10 9 8 8 8 8 8 8 8 9 10 14 18 16 11 10 10 10 9 10 9 9 10 10 10 11 11
15 14 11 9 7 6 6 6 7 6 5 13 25 34 34 26 46 86 102 96 93 94 96 93 89 87 85 82 80 80 82 80 77 76 74 82 95 99 94 86 78 71 62 53 46 41 33 26 20 12 7 7 7 8 9 8 7 7 9 11 11 9 9 9 9 8 9 9 9 9 12 17 21 17 11 11 11 10 10 10 10 10 10 10 10 10
17 17 13 10 8 6 7 7 7 7 5 10 22 32 39 32 36 70 97 98 93 94 95 92 84 81 80 78 79 80 79 76 74 72 71 75 84 94 98 93 85 80 74 63 53 47 41 34 29 21 13 9 7 7 8 8 8 7 7 10 11 10 9 10 9 9 9 9 10 10 10 12 19 22 17 13 11 11 11 10 10 10 11 11 10 9
19 19 16 12 10 7 7 8 7 8 6 8 18 30 39 40 38 55 80 91 93 93 90 87 81 75 72 73 78 79 77 74 73 71 69 67 68 80 94 96 88 85 83 75 63 55 48 39 33 29 20 12 9 7 7 8 8 8 8 8 9 9 10 10 10 10 10 10 10 11 11 10 14 21 23 20 14 12 13 12 11 11 11 11 10 9
20 20 17 14 12 9 7 8 7 8 7 7 14 25 37 42 43 52 67 77 83 86 85 81 77 69 65 68 71 74 74 70 68 68 66 64 61 70 92 99 91 89 91 86 74 63 55 45 39 39 29 16 13 10 8 8 8 8 8 8 8 8 9 10 11 11 11 11 11 11 11 11 11 15 23 28 22 15 16 15 12 12 12 12 11 11
22 20 17 15 14 11 9 8 7 8 8 8 10 19 32 39 43 50 58 61 66 76 82 77 68 61 62 69 67 66 68 65 62 62 59 60 60 65 83 97 95 91 91 91 83 71 62 54 48 47 37 23 19 15 10 8 8 8 8 8 8 8 8 8 10 12 12 12 11 11 11 11 11 11 16 25 25 18 18 18 13 13 14 12 12 12
26 22 18 17 15 12 10 8 7 8 8 9 9 14 23 29 34 38 41 50 59 71 81 76 62 54 56 65 68 65 63 61 59 58 54 53 60 68 76 85 92 92 90 90 87 79 72 64 55 50 41 28 23 19 13 9 9 9 8 8 8 8 7 8 8 10 12 12 12 11 11 11 12 13 13 17 19 17 19 21 17 15 16 13 12 13
28 26 21 19 16 13 11 9 8 8 9 10 9 14 21 22 25 28 31 46 58 64 76 72 53 46 50 58 65 65 62 58 57 59 55 47 53 72 80 77 80 88 91 88 84 83 83 74 60 51 42 29 23 21 17 13 10 9 9 8 8 8 8 8 8 8 10 11 12 12 12 12 11 14 16 16 15 13 17 21 19 18 17 14 11 12
27 29 24 20 18 15 13 11 9 8 10 11 9 12 19 20 26 35 40 51 58 58 64 62 45 38 46 55 58 59 59 58 57 59 58 51 49 64 81 84 81 85 92 91 88 88 89 82 67 54 44 30 22 21 19 16 14 10 9 8 8 8 8 8 8 7 8 9 11 12 13 14 13 13 17 19 16 11 13 17 18 18 19 16 12 11
29 31 28 24 21 18 15 12 10 9 10 12 11 8 12 24 37 44 50 53 52 48 47 52 52 42 45 60 60 57 59 55 57 62 59 58 57 59 71 84 88 89 89 91 96 96 94 90 75 60 51 35 25 27 26 21 17 11 9 8 8 8 8 9 8 8 7 7 9 11 12 13 14 14 17 21 18 12 11 14 14 16 18 18 16 13
30 32 31 29 27 21 17 14 11 11 11 11 12 10 13 30 39 39 45 43 35 34 32 39 50 40 41 65 69 63 63 56 56 66 63 62 67 67 72 85 94 95 90 88 94 97 98 98 81 65 60 48 36 37 38 30 21 15 11 8 8 8 8 8 8 8 8 7 7 9 10 11 13 14 16 20 19 13 11 13 13 13 15 16 18 17
30 35 37 33 30 25 19 17 14 11 11 12 13 13 13 21 27 28 34 27 18 24 23 25 37 30 30 61 80 76 73 66 62 67 67 65 70 73 79 90 96 96 94 90 93 97 98 99 87 69 64 57 48 48 48 42 31 22 18 14 10 9 7 8 8 8 8 8 8 8 8 8 10 12 14 17 18 15 12 12 13 13 13 13 16 18
38 41 44 36 31 29 23 19 17 12 11 13 15 15 13 14 22 29 29 21 17 22 19 17 27 25 20 48 84 92 83 78 77 75 72 70 74 76 81 90 91 88 89 88 91 98 98 95 90 79 70 64 58 56 56 55 48 37 29 24 19 15 11 9 8 8 9 9 9 8 8 8 8 9 11 14 17 16 14 12 12 13 13 13 13 14
49 45 51 47 33 30 28 21 19 17 12 13 15 16 15 13 19 28 29 25 25 25 22 17 17 20 20 35 73 98 94 86 86 84 80 76 78 83 84 87 86 83 84 83 86 97 97 92 91 88 84 80 73 67 63 62 63 57 48 41 36 32 28 21 15 11 9 9 9 9 9 8 8 8 9 11 14 16 15 14 13 13 13 13 13 13
59 55 64 66 44 30 33 26 20 20 16 14 15 16 18 15 14 21 23 21 23 26 25 19 13 19 27 33 58 91 100 93 88 89 87 80 81 86 86 84 82 82 82 79 84 94 94 90 91 91 90 89 85 80 73 70 69 66 61 55 51 50 48 42 36 27 19 12 9 9 9 8 8 8 8 10 11 13 15 16 14 13 13 14 13 13
66 67 74 83 64 39 33 31 27 26 22 17 16 16 19 19 14 15 17 15 19 23 20 16 13 17 27 37 54 81 96 95 92 93 92 86 85 88 86 81 79 80 80 78 84 94 96 94 95 93 89 87 89 89 85 83 83 79 75 70 68 69 67 60 53 47 39 28 17 11 8 8 8 8 8 9 10 11 13 14 15 14 13 13 14 13
72 79 85 95 87 60 41 37 35 33 29 25 21 17 18 21 17 13 13 13 18 21 19 17 14 11 18 34 53 73 88 92 92 94 95 92 90 89 88 83 78 78 79 80 85 93 98 98 98 96 93 92 93 95 94 95 95 91 89 88 86 86 83 76 68 61 55 46 36 25 15 10 7 7 8 8 9 10 11 12 14 14 14 13 13 14
81 91 95 99 100 85 63 49 46 44 39 34 27 20 17 20 20 16 14 12 14 17 18 18 17 12 13 23 39 57 71 79 85 90 92 93 91 89 87 83 79 77 76 79 85 90 96 99 97 97 97 98 97 96 98 97 93 91 94 94 94 94 93 92 88 82 75 67 61 52 40 26 14 8 8 8 9 9 10 11 11 13 14 14 14 14
85 95 99 99 101 100 85 65 58 56 47 40 33 25 20 20 21 19 17 14 12 13 15 16 17 16 13 16 25 35 45 54 63 70 76 86 89 86 83 80 76 76 75 75 78 82 87 89 90 94 99 100 99 98 99 97 94 96 98 96 97 98 98 99 99 97 93 88 83 78 71 57 37 20 11 8 8 8 8 9 11 11 12 13 14 14
81 93 101 100 98 101 93 74 69 66 55 45 39 33 26 23 24 22 17 15 14 13 15 15 16 15 14 17 22 26 30 35 43 47 53 67 77 76 75 75 73 74 76 76 74 74 75 75 77 87 96 98 97 98 100 99 98 100 100 97 98 98 95 96 97 97 98 97 93 91 90 82 66 47 29 14 8 9 9 9 9 10 11 11 12 13
73 83 96 98 94 98 95 76 70 75 71 57 46 41 38 32 27 23 20 19 16 15 16 16 18 21 23 26 25 24 25 28 38 51 57 60 62 62 63 68 72 74 75 76 76 72 70 69 71 78 84 87 90 92 92 94 97 100 99 98 99 99 97 97 97 96 98 99 95 93 95 94 86 74 57 34 16 9 9 9 9 9 10 10 10 11
68 74 86 93 89 94 99 86 68 68 78 76 59 48 52 52 40 28 24 25 20 17 17 18 21 26 30 30 26 24 25 25 34 58 76 76 68 60 56 58 65 68 66 65 67 69 68 67 67 71 75 77 82 85 85 86 90 95 99 100 99 99 99 98 97 96 97 99 97 94 97 100 97 92 81 60 36 18 10 9 9 9 9 9 10 10
64 66 73 85 88 88 98 100 82 64 68 83 79 62 59 68 63 46 32 28 23 21 21 20 22 26 26 27 30 28 28 26 27 44 69 83 81 73 64 56 54 52 47 42 41 50 59 61 58 61 69 75 79 82 83 83 84 87 93 99 99 100 99 94 91 93 96 98 99 98 99 99 99 99 95 83 64 41 22 11 9 9 9 9 10 9
58 61 62 71 83 86 91 100 99 82 68 76 90 85 72 72 77 68 50 35 26 23 23 22 22 23 20 23 33 37 34 35 35 38 51 65 71 70 63 58 54 49 43 35 23 22 38 52 51 46 55 72 83 85 85 85 85 86 90 94 95 96 96 91 88 92 96 96 98 99 99 98 99 100 100 96 86 69 49 30 18 13 10 8 9 10
50 55 57 60 70 80 87 93 99 100 89 78 82 89 87 81 80 77 66 53 40 29 25 22 21 23 24 25 32 38 43 52 55 50 48 51 53 49 38 35 41 43 41 33 18 10 20 39 44 36 43 68 87 92 92 91 90 91 92 92 91 90 90 89 90 94 98 97 96 95 93 94 97 99 100 100 95 88 77 59 43 34 23 12 8 9
54 49 50 52 57 67 76 82 88 97 100 88 72 72 84 89 85 77 68 60 52 40 30 26 23 23 26 28 29 31 39 54 62 59 55 53 50 42 27 16 18 25 27 21 14 12 16 27 38 40 45 65 84 91 94 93 89 89 89 86 86 86 86 87 88 90 92 93 91 90 91 92 95 97 99 100 100 99 94 82 70 63 51 32 17 9
64 56 49 46 48 54 61 67 73 82 94 96 82 72 78 86 84 77 66 57 54 47 38 33 30 27 26 27 28 30 32 39 47 52 54 54 51 47 40 27 19 19 20 17 14 17 22 31 45 53 55 64 75 80 83 86 85 84 82 79 75 73 73 73 75 78 81 82 83 86 90 93 95 97 97 97 98 99 99 94 87 81 76 64 46 24
65 63 57 50 45 45 49 54 59 66 77 91 96 92 88 85 79 72 64 59 59 55 46 39 36 34 32 30 29 30 30 28 28 33 39 45 48 52 54 48 37 27 21 17 15 19 32 50 67 75 75 74 75 75 75 80 83 79 76 74 67 61 58 57 60 65 66 66 67 70 79 90 97 97 95 95 96 97 98 99 98 93 89 86 80 60
60 60 60 57 52 48 45 45 50 57 63 74 89 99 98 91 82 75 72 71 71 65 55 47 42 39 38 37 34 31 29 27 24 25 31 37 42 51 59 57 50 39 24 16 16 19 29 49 68 81 88 85 80 79 77 79 81 77 71 68 63 58 54 51 53 59 64 70 75 75 79 90 95 91 87 89 93 96 97 98 100 100 97 94 96 90
46 54 57 57 57 57 55 50 46 50 54 58 71 87 95 97 94 91 88 83 76 73 66 55 49 45 43 45 46 42 40 37 32 30 33 36 39 49 59 58 55 54 42 25 19 17 21 36 49 62 78 85 81 79 78 79 80 77 71 66 61 57 54 49 49 51 55 65 78 83 81 82 85 84 82 81 83 90 97 100 100 101 100 97 99 100
29 39 49 55 57 59 61 58 52 52 54 51 54 65 76 85 92 96 98 92 83 80 75 64 57 52 49 50 50 50 50 46 44 48 51 49 48 52 58 58 56 59 55 39 25 18 18 27 33 41 63 82 84 79 77 77 78 74 70 67 63 59 57 53 50 49 49 50 57 65 66 65 71 81 86 82 76 79 92 100 100 100 101 100 99 99
18 23 31 42 51 56 59 59 57 61 63 56 48 50 56 64 71 79 90 97 96 92 86 76 65 55 48 46 44 50 58 56 55 63 64 60 58 57 56 58 56 52 51 47 39 29 25 27 28 39 66 89 90 83 77 74 72 69 67 65 61 59 59 56 54 55 59 57 51 49 49 49 54 62 67 67 63 66 81 93 94 95 98 99 100 100
15 17 18 22 32 43 52 58 57 58 61 58 53 51 49 51 55 58 68 83 94 98 96 90 78 61 51 49 46 49 62 65 58 55 53 51 53 52 54 60 59 54 55 59 55 45 38 34 31 41 67 88 93 88 81 74 69 65 63 60 57 56 54 52 51 51 53 53 48 42 39 39 41 43 42 44 49 58 73 85 89 90 93 97 98 98
13 14 15 15 18 24 34 46 52 53 56 57 58 58 53 49 51 51 54 65 78 87 92 93 87 73 65 68 66 57 58 63 59 55 59 64 63 59 61 66 65 62 65 68 65 58 52 46 39 37 48 69 85 90 84 77 71 66 63 60 57 54 52 49 48 46 44 42 40 37 35 33 33 35 37 42 52 62 70 78 86 90 92 95 96 95
18 14 11 11 12 14 18 26 36 45 53 55 56 59 57 53 52 50 48 53 62 69 76 86 91 83 73 77 82 72 61 63 69 68 72 83 88 81 74 71 68 67 68 67 63 59 56 54 52 45 42 53 72 82 80 79 77 72 68 65 61 58 56 53 51 50 49 47 44 40 38 36 34 34 40 49 61 72 78 82 84 84 80 76 77 83
29 26 22 17 15 13 12 14 18 28 41 50 55 59 58 56 57 55 50 51 54 55 63 78 92 95 86 77 77 74 65 65 78 81 75 81 95 97 88 82 79 75 71 66 60 55 52 52 55 53 50 55 68 76 75 74 76 75 72 69 66 62 60 57 56 54 53 53 52 48 45 44 40 38 37 41 48 54 60 64 65 64 64 59 52 54
32 33 33 32 28 24 19 16 13 15 22 32 43 53 58 61 63 62 60 60 59 53 51 60 75 90 95 88 77 71 64 62 75 87 82 78 88 93 90 88 89 86 82 76 69 62 54 49 48 52 55 58 67 75 76 73 74 77 76 73 70 66 63 60 58 57 55 55 55 54 51 49 46 43 39 37 38 37 38 42 44 45 48 47 39 35
33 34 35 37 38 37 33 28 23 18 16 18 24 34 45 55 63 68 69 69 68 62 55 55 59 68 81 91 88 81 75 70 76 90 93 88 90 93 89 85 86 88 88 85 83 80 72 59 50 48 50 54 58 63 66 66 68 71 74 75 74 70 67 63 59 57 57 55 55 54 53 51 47 45 42 40 39 38 36 38 41 40 39 37 32 29
34 35 36 37 39 41 42 40 36 31 26 21 18 19 23 32 43 57 68 73 75 74 68 64 61 57 60 71 80 83 85 81 77 86 96 97 95 97 97 94 91 88 86 84 84 84 81 75 67 58 52 50 53 56 58 58 60 65 70 75 75 72 70 67 63 60 58 57 56 55 53 52 50 48 47 46 45 45 43 41 42 43 42 40 35 30
33 35 37 38 38 39 41 43 42 40 38 34 29 24 20 20 22 30 44 57 67 73 74 71 66 58 50 53 64 76 85 83 76 81 94 96 90 87 86 85 83 80 78 80 82 81 79 80 81 78 72 64 61 63 66 67 68 71 74 76 76 73 71 68 65 63 61 58 57 56 54 55 55 54 53 52 50 49 48 46 45 45 45 44 41 37
36 37 38 40 41 42 42 42 41 42 42 40 38 35 29 25 22 20 22 30 40 51 61 67 67 60 50 49 59 71 80 81 78 79 82 82 83 87 85 79 77 73 69 71 77 83 87 87 87 91 93 90 84 80 79 82 86 89 88 86 83 78 74 72 70 68 67 64 61 60 59 60 59 58 55 52 49 46 45 43 43 43 44 46 45 43
44 44 44 43 43 44 45 45 43 43 44 44 44 44 40 36 32 28 24 21 22 26 34 44 54 57 51 49 56 65 75 83 86 84 78 74 80 87 85 80 78 75 69 67 71 78 87 95 98 98 98 98 98 96 93 93 96 99 98 97 93 88 83 79 75 73 72 71 69 67 65 63 60 57 53 50 46 43 40 37 36 35 37 39 41 43
41 46 48 50 52 52 51 50 48 46 45 45 45 46 47 46 44 42 38 33 27 23 22 24 32 40 44 47 55 66 79 91 94 90 85 84 86 87 85 85 85 80 72 68 66 66 72 82 94 101 101 100 100 99 98 98 99 100 101 100 98 95 91 87 82 78 76 76 76 74 70 66 62 58 53 48 44 40 36 33 31 29 29 30 32 35
23 28 31 35 42 46 49 51 52 51 49 47 44 42 41 42 43 45 47 47 42 36 30 24 22 25 29 34 43 54 68 81 87 88 91 95 97 96 93 95 98 95 86 75 64 58 57 61 69 80 89 95 97 96 95 94 95 97 100 101 100 98 95 91 88 85 82 80 78 75 71 66 61 56 50 45 40 36 32 30 27 25 25 26 27 28
Wind_Speed
34 33 32 28 24 22 23 24 26 26 26 24 24 25 25 23 21 21 19 18 19 16 17 18 15 14 16 17 16 16 17 20 22 20 19 18 17 17 18 17 17 17 18 17 16 16 15 14 14 14 14 14 15 15 15 14 13 13 13 13 13 13 13 13 12 11 11 11 11 10 10 10 10 10 10 10 10 11 11 12 12 12 11 11 11 11
35 34 31 27 25 26 27 28 28 27 25 24 24 25 26 24 21 20 19 19 21 19 17 17 16 13 13 14 14 14 13 16 23 23 20 20 19 18 18 17 17 16 16 16 16 15 15 14 13 14 14 14 15 15 15 14 13 12 13 13 13 12 13 13 12 11 10 10 10 9 9 9 10 10 10 9 9 10 10 10 11 11 11 11 11 11
35 33 30 28 29 30 29 30 29 27 25 24 25 26 27 25 21 21 21 22 22 21 19 18 17 15 14 14 14 14 12 14 23 26 22 21 21 19 19 17 16 15 14 15 16 16 16 15 14 14 15 14 14 15 15 15 14 13 13 13 13 13 13 13 12 11 10 9 9 9 8 8 9 9 9 9 9 9 9 9 10 10 10 10 10 10
33 32 32 32 33 32 31 31 29 27 25 24 25 26 28 27 24 23 23 23 22 22 22 21 19 18 16 16 16 15 14 14 19 24 22 22 21 20 19 18 17 16 16 15 16 17 17 17 16 15 15 14 14 15 16 16 15 14 14 14 13 13 14 14 13 12 11 10 10 9 9 8 8 8 9 9 9 9 9 9 9 9 9 9 9 9
32 32 35 36 35 33 32 32 30 28 26 25 25 26 28 29 27 26 25 24 24 23 24 23 22 21 19 19 19 17 15 14 16 18 20 21 22 20 18 18 18 18 17 16 16 16 17 18 18 17 15 15 14 14 15 16 16 15 15 14 14 14 14 15 14 13 12 11 10 9 8 8 7 7 8 8 9 9 9 9 9 9 9 9 9 9
33 34 37 38 36 35 34 32 31 30 27 26 25 26 29 31 30 28 26 26 26 24 24 24 23 22 21 20 20 19 17 17 16 16 18 22 23 22 18 17 19 18 17 16 16 17 18 19 19 18 17 16 15 14 14 15 15 15 15 15 15 15 15 15 15 14 12 11 10 8 7 7 7 7 8 8 9 9 10 10 10 9 10 10 9 9
34 36 38 38 37 36 35 34 32 31 29 27 26 27 30 32 32 30 28 28 29 28 26 25 24 23 21 21 21 20 19 18 17 17 18 22 25 24 20 19 19 18 17 16 15 16 17 17 17 18 18 17 17 15 14 14 15 16 16 16 16 15 15 15 15 14 13 11 10 9 8 8 7 7 8 9 9 9 10 10 10 10 10 10 10 9
36 37 38 38 38 37 36 35 33 32 31 29 27 28 30 33 34 32 30 31 32 32 30 27 26 24 22 21 22 22 19 18 18 18 17 17 21 23 21 21 20 18 18 17 16 16 15 15 16 18 19 18 18 16 15 15 15 16 16 17 17 17 16 15 14 14 13 11 10 9 9 9 9 8 8 8 8 9 9 10 10 10 10 10 10 9
37 37 37 38 38 38 37 35 34 33 32 31 29 30 31 33 36 35 33 33 34 35 32 29 27 25 23 22 21 21 20 19 18 20 19 16 18 21 23 22 21 19 19 18 18 17 16 16 17 18 18 18 18 18 17 16 16 16 16 17 18 18 17 16 14 13 13 11 10 10 10 10 10 9 8 8 8 8 9 9 9 10 10 10 10 10
38 38 38 38 39 38 38 37 35 34 33 33 32 32 32 33 36 37 35 34 36 36 32 30 29 27 25 23 20 20 21 21 20 20 21 20 19 21 23 22 20 20 20 19 19 19 17 17 17 17 17 17 19 19 18 18 17 17 17 17 18 18 17 17 15 13 12 12 11 11 11 10 9 9 8 8 7 7 8 8 9 10 10 10 10 10
38 38 39 39 39 39 39 39 38 35 33 34 35 34 34 34 35 38 38 37 38 36 32 31 30 29 28 26 23 22 21 22 22 21 21 22 21 21 22 23 21 20 20 20 20 19 19 17 16 15 16 17 18 18 18 19 19 18 18 18 18 17 17 16 16 14 14 13 13 12 12 10 9 8 8 7 7 6 7 7 9 10 10 11 11 11
38 39 39 39 38 38 39 39 39 36 34 36 38 37 36 36 36 38 39 40 39 36 32 31 31 31 29 27 27 26 23 22 22 21 20 21 21 21 22 23 22 22 21 21 21 20 19 17 14 14 15 16 17 17 18 19 20 19 19 19 19 18 17 16 16 15 15 15 14 14 13 12 11 10 9 8 7 7 7 7 8 8 9 10 11 11
39 39 40 39 38 38 39 40 39 38 36 37 39 39 38 38 38 38 40 40 40 36 32 32 33 31 28 27 29 28 25 23 21 21 21 21 21 21 23 24 23 23 22 22 22 21 19 17 15 15 15 15 16 17 19 20 20 20 20 20 20 19 17 16 16 16 16 16 16 16 15 14 12 11 10 10 9 8 8 7 7 8 9 10 11 11
38 39 39 39 39 38 39 40 40 39 39 38 39 40 40 40 39 40 40 40 39 35 31 32 33 30 27 27 28 27 26 24 22 22 22 22 20 20 23 25 24 23 23 22 22 21 20 19 18 18 18 18 18 18 20 20 20 20 20 20 20 19 18 17 17 17 17 17 17 16 16 15 13 12 11 11 10 10 9 8 8 8 9 9 10 11
38 39 40 39 38 38 38 39 40 40 40 38 38 40 41 40 39 39 39 38 36 32 31 32 33 30 27 27 27 25 25 25 23 23 23 23 21 19 21 24 25 25 24 23 23 22 22 21 21 20 20 21 20 20 20 21 21 20 20 20 20 20 19 19 18 18 18 17 17 17 16 16 15 13 12 12 12 11 10 10 9 9 9 9 10 11
39 40 40 39 38 37 37 38 40 41 42 40 38 40 42 40 39 38 37 36 33 31 32 33 32 29 25 26 27 26 26 25 25 24 23 23 22 19 18 20 23 26 27 25 25 25 24 23 22 22 22 22 22 21 21 21 21 22 21 21 20 20 19 19 20 19 19 18 17 17 17 16 16 15 14 13 13 13 12 11 10 10 9 10 10 11
39 40 40 39 38 37 37 38 40 41 43 41 40 41 41 41 40 39 38 36 33 33 34 33 31 28 24 24 25 26 26 26 25 24 23 22 20 19 18 18 21 24 26 27 27 28 28 26 25 24 24 23 22 21 21 21 21 22 22 22 21 20 19 19 20 20 20 19 18 18 18 18 17 17 16 15 15 14 13 12 11 11 11 10 9 9
38 39 40 39 38 38 38 38 40 42 42 42 40 39 40 41 42 41 39 37 35 35 35 33 32 29 25 24 24 24 25 26 25 24 22 20 19 18 18 18 19 21 23 26 29 31 31 30 27 25 24 23 22 22 22 22 21 21 21 22 21 21 21 20 20 21 21 21 20 20 19 19 19 18 18 17 16 16 15 14 13 12 12 10 9 9
36 36 37 39 38 38 38 38 40 42 42 42 41 39 40 43 44 43 41 39 37 37 36 33 32 31 27 24 23 23 23 23 24 24 22 20 19 19 19 19 20 20 21 22 28 35 34 29 28 26 25 24 24 23 23 22 21 19 18 19 20 21 21 20 20 20 20 21 21 21 21 20 20 19 19 18 18 17 17 16 15 14 13 12 11 10
33 33 33 37 38 38 39 39 39 41 42 42 42 40 41 43 44 43 42 40 38 39 37 34 32 32 28 24 24 24 22 22 23 24 23 21 19 19 19 20 20 20 21 19 23 34 38 31 28 27 25 26 25 24 24 23 21 19 18 18 19 19 19 19 19 20 20 21 22 22 22 22 21 20 20 19 19 19 18 17 17 15 14 13 13 12
30 31 30 33 37 38 38 39 39 40 41 41 42 41 42 43 44 44 43 41 40 40 37 34 33 32 29 26 26 25 23 22 23 24 23 22 20 20 19 19 19 19 20 18 17 27 37 34 30 28 26 26 26 26 26 24 22 21 20 20 19 19 19 19 20 21 22 22 23 23 23 23 23 22 21 21 20 20 20 19 19 18 16 15 15 14
28 30 28 29 35 37 37 38 39 38 40 40 41 41 41 43 44 44 45 44 42 41 39 36 34 32 29 28 27 27 25 23 24 25 25 24 22 21 20 19 20 19 20 18 16 22 31 32 30 30 30 29 29 28 27 25 23 22 21 21 21 20 21 21 21 22 22 23 23 24 24 24 24 23 22 22 21 21 21 21 21 19 18 18 17 16
27 29 28 26 31 35 36 37 38 38 38 39 40 42 42 42 43 44 45 44 43 43 42 39 36 33 31 30 29 29 28 26 25 26 26 26 24 23 22 21 20 19 19 19 18 22 30 33 32 31 32 33 32 29 27 26 23 21 21 21 21 22 23 22 22 21 21 21 22 23 23 24 24 24 23 23 23 23 23 23 23 22 21 20 19 18
26 28 27 25 27 32 35 36 36 37 37 38 39 42 42 42 43 44 45 44 45 44 43 41 39 35 33 32 31 31 30 27 26 26 27 27 26 24 23 22 21 19 19 19 19 22 26 31 34 35 35 35 33 30 28 27 26 25 24 25 25 24 23 22 21 20 19 19 20 21 21 22 23 23 24 24 25 25 25 25 24 24 23 22 21 21
24 27 28 26 26 28 33 35 35 36 36 38 39 41 43 43 42 43 44 45 46 46 44 42 40 37 35 34 33 33 32 29 27 26 26 27 27 26 25 24 23 22 20 20 20 21 21 23 28 34 36 36 34 32 31 29 29 29 29 28 28 26 24 22 21 21 20 20 20 20 20 22 23 23 24 25 26 27 27 27 26 26 26 25 24 23
23 26 28 29 27 27 31 35 35 36 37 38 40 41 42 43 43 43 44 46 47 46 45 44 41 39 38 36 34 34 34 33 31 28 27 27 27 27 26 25 24 23 22 21 21 22 23 22 22 24 28 30 31 33 33 32 32 32 31 31 31 28 26 25 25 25 25 24 22 22 22 23 23 24 24 25 26 28 29 29 28 28 27 27 26 25
23 26 29 32 31 28 31 35 35 35 38 39 40 42 41 42 43 44 45 46 47 47 46 45 43 41 40 38 36 34 33 33 33 31 30 29 28 27 27 27 26 24 23 22 22 22 24 25 23 21 21 24 25 28 31 33 35 36 35 34 33 30 29 29 30 30 29 27 25 25 26 26 26 25 25 26 27 28 30 30 30 30 29 29 28 27
22 27 29 33 35 30 30 36 37 35 36 39 41 41 41 41 42 44 45 46 47 47 46 46 45 42 40 39 38 36 34 33 32 31 30 31 31 29 28 28 28 26 24 23 23 23 24 24 24 23 23 24 24 24 27 29 31 34 36 35 33 32 32 32 31 31 31 29 28 28 29 30 30 28 26 27 28 29 30 31 32 32 31 31 30 29
21 26 29 33 38 35 31 34 40 39 36 38 41 42 40 39 41 43 46 46 47 47 46 46 45 44 42 41 39 37 36 35 34 32 30 30 31 30 29 29 28 28 26 25 25 25 24 23 23 24 25 26 26 26 26 27 27 28 33 36 34 33 33 33 33 32 31 31 31 31 31 32 33 32 30 29 30 31 31 32 32 32 33 32 31 30
20 25 30 33 38 40 36 33 37 42 40 37 39 42 41 40 39 41 44 46 47 47 46 46 45 44 44 43 41 39 37 37 36 36 34 32 31 31 31 31 30 28 27 26 26 28 27 25 25 25 25 27 28 27 27 27 26 25 27 32 33 32 32 33 33 31 31 31 31 31 31 32 33 35 34 33 33 33 33 33 33 32 33 33 33 32
19 22 28 33 36 41 41 34 33 39 43 41 39 40 42 41 40 40 41 43 46 46 46 46 45 45 45 44 42 40 39 38 37 38 38 37 37 36 35 34 33 31 29 27 27 29 30 30 28 27 26 27 28 28 27 28 27 26 25 26 28 29 29 30 29 29 29 30 31 31 31 32 33 36 37 37 36 36 35 34 33 32 33 33 34 34
20 20 23 31 36 40 42 38 33 34 40 44 42 40 41 42 41 41 40 40 42 43 45 46 45 44 44 43 42 42 40 39 38 38 39 40 41 40 39 38 36 34 32 30 29 29 30 31 31 29 28 28 28 27 27 26 26 25 24 25 26 27 27 27 26 26 27 28 29 29 29 30 31 33 36 39 39 38 36 35 34 34 34 34 35 36
19 21 21 25 33 39 41 39 36 33 35 41 45 43 41 41 41 40 40 39 39 40 42 44 44 44 43 42 43 43 42 40 40 40 40 40 41 41 40 39 38 36 34 31 29 29 29 30 30 30 31 31 31 30 28 27 26 25 23 23 24 25 25 26 25 24 25 26 26 26 26 27 27 28 31 36 39 40 39 38 37 37 36 36 36 36
17 20 21 22 26 35 40 39 38 36 33 35 41 44 43 42 42 41 40 39 38 39 40 41 41 42 42 42 42 42 42 43 43 43 42 41 41 39 38 37 37 36 34 31 29 28 28 29 31 31 32 33 33 33 32 31 30 28 25 24 24 24 24 24 24 24 25 25 24 23 23 24 24 25 26 30 35 39 41 41 40 39 38 38 37 37
17 18 20 22 22 27 35 38 39 40 34 30 34 40 42 43 43 42 41 39 38 37 38 39 39 39 40 40 39 40 41 43 44 44 43 42 40 37 35 34 34 34 33 31 30 29 28 27 28 30 32 33 33 34 33 32 32 30 28 27 26 25 24 24 25 25 24 24 24 24 24 23 22 21 22 24 29 35 39 40 42 42 41 40 39 38
14 17 19 21 22 23 28 33 37 38 36 32 30 33 38 42 44 44 42 40 38 37 36 37 38 38 38 37 37 38 40 41 42 42 41 40 38 36 33 33 33 33 33 31 30 30 30 28 27 28 31 33 33 33 32 32 32 32 31 29 29 27 26 26 26 25 23 23 23 23 24 24 21 19 19 18 20 25 31 34 39 43 43 42 40 37
6 11 16 19 21 22 24 28 32 34 35 35 34 32 33 37 40 43 45 42 39 38 37 36 36 36 36 36 35 36 37 37 38 39 39 39 38 36 35 34 33 32 32 32 31 31 31 31 29 29 31 33 34 34 33 32 32 33 33 32 31 30 29 28 28 26 26 25 24 24 23 23 21 20 19 17 16 18 20 25 33 40 43 43 41 38
4 5 9 14 18 21 22 24 28 30 30 32 34 34 34 32 32 35 40 42 40 38 38 37 36 36 36 36 36 36 36 36 35 34 34 36 36 36 36 36 35 33 32 32 32 32 33 33 33 32 32 34 35 34 34 33 33 34 34 34 33 32 31 30 29 27 27 27 27 27 25 24 23 20 19 18 17 17 16 16 21 30 37 41 41 40
7 6 6 8 11 16 20 23 25 26 26 26 30 34 35 34 32 30 31 35 38 38 38 39 38 37 36 37 38 38 36 35 35 34 34 35 36 37 37 38 38 36 35 34 33 32 33 33 34 34 34 35 36 35 35 35 34 34 34 34 34 33 32 31 30 28 28 28 28 28 26 26 25 24 22 21 20 19 17 12 9 11 19 27 34 37
7 8 8 8 8 10 14 19 23 25 24 24 26 29 32 34 34 32 29 30 33 35 38 41 40 39 38 38 39 39 38 37 37 37 38 38 39 41 41 40 40 39 36 35 34 33 33 33 33 33 34 35 37 37 37 36 35 35 35 35 35 34 34 33 32 31 31 30 29 29 28 26 26 25 24 22 21 21 21 19 16 12 10 14 19 25
5 7 8 9 10 10 11 14 18 21 23 24 23 25 29 30 31 32 31 30 30 30 33 38 42 43 42 40 37 37 39 40 39 37 38 40 42 45 44 41 41 41 39 37 36 35 34 34 34 34 34 35 36 36 37 37 36 35 36 36 36 36 35 34 33 33 33 32 31 30 29 28 26 24 22 21 21 20 19 20 23 21 16 13 11 11
6 6 7 8 9 10 11 12 13 15 19 22 22 22 25 27 29 31 31 31 31 31 31 34 40 45 48 45 41 38 40 41 39 37 38 38 38 42 46 46 43 43 42 40 40 39 38 37 36 35 35 36 36 36 36 36 36 36 37 37 37 37 37 36 36 34 33 32 31 30 30 28 26 24 22 22 22 21 18 18 21 24 24 22 19 15
8 7 7 8 8 9 10 11 13 14 15 18 20 21 23 25 26 27 29 30 32 33 34 33 35 41 47 49 46 43 42 42 40 39 41 41 35 33 38 41 42 43 44 43 42 41 41 41 40 39 38 38 39 38 38 37 37 36 37 37 38 38 38 38 37 36 35 34 32 30 30 29 26 24 23 24 23 23 23 23 23 23 25 26 23 21
11 10 10 10 10 10 10 10 12 13 13 15 17 18 21 23 23 23 25 28 30 33 36 36 34 34 39 44 46 46 44 43 43 41 42 44 42 38 35 33 33 36 38 40 41 42 43 44 44 44 43 43 43 42 41 41 40 38 38 38 38 38 39 38 38 38 37 36 34 32 30 28 27 25 23 23 23 23 24 25 24 23 23 23 23 22
13 13 13 12 12 11 11 11 12 12 13 14 15 16 18 20 21 22 23 26 28 31 34 37 36 34 33 34 38 43 44 44 45 46 44 41 40 40 39 37 35 33 33 35 37 39 42 44 46 47 47 47 47 47 46 44 43 42 41 41 40 40 39 39 38 38 37 36 35 33 31 29 27 26 24 23 23 23 23 23 24 24 23 23 23 23
14 14 15 15 14 14 13 13 13 13 14 14 15 16 17 18 20 22 23 25 27 30 32 35 37 37 35 33 33 38 41 42 44 47 48 45 40 36 36 36 36 36 35 35 36 38 40 43 44 47 50 51 50 50 49 48 46 44 43 43 42 41 40 39 38 38 37 36 35 33 32 30 29 27 26 25 24 24 24 24 25 25 24 24 23 23
15 15 16 16 16 16 16 15 15 15 15 15 16 16 17 18 19 20 22 24 27 29 32 34 36 39 39 38 37 37 39 41 43 44 44 44 42 42 42 41 41 41 40 39 37 38 41 44 44 44 47 50 51 51 50 49 47 46 45 45 44 44 43 41 40 39 38 37 37 35 33 32 30 29 28 27 27 27 26 27 27 27 27 26 26 25
14 15 16 16 17 18 18 18 18 18 18 17 17 18 18 19 19 19 21 23 25 27 30 32 35 39 41 41 39 38 39 40 42 44 44 41 37 38 41 44 45 46 47 46 44 41 41 45 47 46 46 48 50 51 50 49 48 47 47 47 47 47 46 45 43 42 40 39 39 38 36 35 33 32 32 31 31 31 30 30 30 30 30 29 29 28
15 15 16 16 17 18 19 20 20 21 21 21 20 20 20 20 21 21 21 22 24 25 27 29 31 36 41 42 39 38 38 37 36 39 43 44 40 37 38 40 43 46 48 49 49 47 45 45 45 45 45 46 48 50 51 51 50 49 49 49 49 49 48 48 46 44 43 42 41 41 40 38 37 37 36 36 35 35 35 35 34 34 34 33 33 33
15 16 16 17 18 19 19 20 21 22 22 23 23 23 23 22 23 23 23 23 24 25 26 28 29 31 36 40 40 39 39 38 37 37 38 39 41 41 38 36 38 41 44 47 49 50 49 48 45 42 41 40 41 44 48 50 52 53 52 52 52 51 51 50 49 48 47 45 44 43 42 41 40 40 40 40 39 39 38 38 38 38 37 37 37 37
15 16 17 18 19 20 21 22 23 23 24 25 25 26 26 26 25 25 25 26 26 27 27 28 29 30 32 36 39 40 41 41 43 43 40 37 37 38 36 34 34 35 36 41 47 50 52 52 53 52 49 45 42 40 41 44 46 49 52 54 54 54 54 53 52 51 50 49 47 46 44 43 43 42 42 41 41 41 40 40 40 41 41 40 40 40
Wind_Direction
214 214 213 212 213 216 217 217 219 218 215 211 208 211 206 193 191 196 199 202 202 208 211 207 203 189 179 182 185 186 193 198 197 193 187 180 176 173 169 169 175 184 186 184 184 181 180 181 173 168 169 164 160 159 159 157 153 149 150 152 151 151 149 150 150 146 143 141 138 139 137 133 130 127 126 125 123 121 121 121 121 122 126 131 135 137
213 213 212 209 210 212 212 213 215 216 214 210 206 210 206 193 190 196 199 205 207 208 209 208 216 216 196 187 186 184 190 203 203 198 192 185 181 178 174 172 175 179 183 183 186 185 185 187 184 177 177 172 164 161 160 158 155 151 151 153 153 152 151 152 152 151 152 152 149 150 150 145 139 137 136 136 134 130 129 129 129 129 131 134 138 142
214 211 210 210 210 211 211 211 213 214 212 208 205 208 205 191 188 197 201 205 206 207 211 207 210 218 215 204 195 189 189 196 200 199 196 190 187 184 178 175 172 171 178 182 184 188 188 190 192 189 184 178 168 162 160 161 159 158 156 154 153 155 155 153 155 157 160 163 164 165 167 163 152 146 144 144 144 141 140 139 138 138 139 141 142 146
215 210 209 211 211 211 211 211 211 210 208 206 204 206 205 191 187 197 202 205 205 206 211 209 206 211 217 215 207 199 194 189 193 199 201 195 191 190 184 176 171 172 178 182 183 187 189 190 193 195 191 183 176 168 164 165 165 164 162 157 155 157 157 155 157 161 165 172 177 178 180 178 168 158 154 154 155 154 152 150 149 148 147 148 149 151
213 210 211 212 211 211 211 211 210 208 205 204 203 205 204 193 189 196 198 201 205 206 209 210 211 214 217 219 216 209 203 195 193 201 208 204 196 195 193 180 175 179 182 183 183 184 188 191 191 194 194 188 186 179 170 167 167 168 167 162 159 159 159 159 159 163 170 177 182 184 186 186 181 174 169 166 166 166 165 163 160 158 156 156 158 159
208 209 212 213 211 210 210 211 210 207 201 200 202 205 204 197 193 198 199 199 203 206 208 209 212 214 216 217 217 214 209 204 200 203 210 212 204 199 197 186 181 185 187 187 187 186 189 192 190 191 194 193 192 189 179 170 168 172 172 168 167 167 166 164 162 165 172 176 178 176 177 183 185 185 185 183 179 177 176 174 172 169 166 164 163 164
207 209 212 213 212 211 210 210 210 206 200 197 200 206 206 201 196 200 205 203 203 207 208 207 208 209 211 212 214 214 213 211 210 209 212 217 211 202 197 191 186 187 189 191 193 193 193 192 190 191 194 195 195 195 190 179 172 175 177 176 176 176 175 174 169 168 173 173 170 167 168 174 182 189 195 195 192 188 187 185 181 178 176 174 170 168
207 210 212 213 213 212 211 211 210 206 201 195 198 205 207 204 197 199 207 208 207 209 209 206 206 206 206 209 212 214 216 215 214 215 219 220 211 205 202 193 188 189 191 192 195 198 196 191 193 197 197 196 196 197 197 191 182 180 179 179 182 184 184 185 180 174 173 173 169 168 171 176 181 189 197 199 200 200 199 198 193 188 186 185 182 178
206 209 212 213 214 213 212 212 212 208 202 195 197 205 207 206 201 199 205 209 209 211 211 208 208 206 206 208 212 215 218 217 214 215 219 216 206 211 215 202 190 192 193 194 196 198 198 193 196 202 202 198 195 196 199 198 193 187 183 182 185 189 190 193 192 183 177 175 175 178 183 187 186 187 192 197 205 209 208 209 206 201 198 197 196 193
207 208 210 212 213 213 212 212 212 210 203 196 199 205 207 209 206 203 205 208 211 212 212 212 211 209 209 211 214 217 219 216 213 213 216 213 206 213 221 210 201 200 196 197 199 200 202 199 198 203 205 202 198 196 198 201 201 196 190 187 189 191 192 196 198 193 186 182 185 191 196 199 196 193 193 196 207 214 215 215 214 212 210 207 206 206
207 208 209 212 212 212 212 212 211 209 204 200 201 204 207 209 208 207 208 210 212 212 212 214 214 212 212 213 216 218 218 216 214 214 215 215 210 212 215 209 207 208 203 202 202 201 206 206 201 203 206 205 202 198 196 200 204 202 198 194 193 192 192 196 199 197 195 192 194 202 206 208 208 206 203 200 205 215 220 222 218 217 216 216 215 214
206 208 209 211 212 211 212 212 211 209 205 203 203 204 207 209 209 210 210 212 213 212 213 215 215 214 213 216 219 218 218 218 218 218 219 218 215 212 210 206 209 214 211 209 207 203 206 207 203 203 208 208 203 198 197 198 201 203 203 201 198 195 192 195 199 198 198 198 198 205 212 214 213 214 213 209 208 211 216 222 223 220 219 220 221 222
206 207 209 210 211 211 211 212 212 210 208 206 206 205 207 209 210 211 213 214 214 210 212 218 218 214 212 217 222 220 219 221 222 222 221 220 218 214 209 207 211 217 216 215 213 207 203 202 201 201 204 206 203 200 199 198 200 202 204 204 202 199 195 195 199 200 200 200 201 205 211 215 215 214 215 216 216 213 211 214 219 222 220 218 220 223
207 207 210 210 210 210 211 212 211 211 211 209 208 207 209 212 212 214 216 217 215 209 211 220 221 216 213 218 224 224 223 225 226 226 223 219 218 217 212 209 210 216 219 219 218 213 205 201 201 201 200 202 202 200 200 200 200 201 202 204 204 203 200 198 200 204 204 203 203 205 210 213 214 215 216 218 220 220 215 210 210 217 221 220 219 221
207 208 210 210 209 209 210 211 211 212 213 212 210 209 212 215 216 219 221 220 217 212 213 222 225 219 215 220 225 226 227 226 225 226 223 219 217 215 215 214 211 213 217 220 221 219 212 204 203 202 200 200 201 200 202 202 200 199 200 202 203 204 204 202 201 205 208 208 207 208 211 213 212 213 217 219 222 222 220 214 210 210 217 223 224 223
207 208 210 210 209 209 209 210 211 213 214 214 211 211 212 215 217 220 222 222 220 216 217 224 229 224 219 222 225 226 226 224 223 223 220 217 216 212 212 215 216 215 216 219 223 225 220 210 204 204 202 201 201 201 203 204 201 199 199 200 201 203 205 204 203 206 210 211 211 212 214 216 215 214 215 219 222 224 222 221 217 211 211 218 223 225
207 208 209 209 209 208 208 209 211 213 215 215 213 214 214 215 216 218 221 221 220 219 220 223 227 225 218 220 224 225 225 223 222 221 218 213 212 212 209 209 215 219 220 221 223 227 227 217 206 204 204 201 201 202 204 206 204 201 200 200 199 201 203 204 205 208 210 211 213 214 215 217 218 217 216 217 221 224 224 225 224 219 214 215 220 226
207 208 210 210 209 208 207 208 210 212 215 215 215 215 214 215 218 219 221 222 221 223 223 221 223 223 215 213 221 224 223 223 222 220 218 213 208 210 210 208 211 217 223 226 224 225 225 219 210 205 204 202 202 203 205 208 207 204 203 203 201 201 202 203 205 207 210 212 214 216 217 218 218 218 218 218 220 223 224 225 227 226 222 219 219 225
207 208 212 211 209 207 206 207 211 213 213 214 214 213 213 216 221 222 222 223 223 224 225 223 224 225 217 210 216 222 221 220 222 221 220 217 211 208 209 210 211 216 223 231 230 223 218 213 208 206 205 204 204 205 207 209 208 205 205 206 204 204 205 204 205 207 211 213 215 217 218 219 220 219 220 220 221 223 224 225 227 229 228 225 222 224
208 207 212 213 210 208 206 206 210 213 213 214 213 212 212 216 221 224 225 226 227 228 228 225 226 228 222 211 211 220 220 215 218 221 219 216 213 211 211 212 215 219 223 232 236 227 218 212 209 208 208 208 206 206 208 208 207 205 205 207 207 207 207 207 207 208 211 213 215 218 220 221 221 221 221 221 223 225 226 226 226 227 229 229 227 226
210 206 210 214 212 209 208 207 209 212 213 213 214 213 213 215 218 222 226 228 229 232 232 228 227 230 226 215 211 217 220 215 215 219 217 214 211 212 214 215 216 221 226 231 234 225 218 214 212 210 210 211 210 210 209 208 206 204 203 205 207 207 207 207 208 209 211 212 213 216 219 221 222 222 221 221 222 225 227 228 228 227 227 230 231 229
211 206 207 213 214 211 210 208 208 212 214 213 213 214 214 215 217 220 224 227 229 232 233 232 229 229 226 219 213 215 217 215 215 216 216 215 213 213 216 218 216 220 226 225 221 219 218 218 216 213 212 213 213 212 212 211 208 206 205 207 209 210 210 209 210 211 213 215 215 215 217 219 222 223 222 222 223 225 227 229 230 229 227 228 232 231
209 206 205 211 215 212 210 209 209 212 214 214 213 213 214 216 217 219 223 226 229 232 234 234 232 229 225 220 215 214 216 215 215 216 216 217 217 217 220 222 218 220 225 223 214 214 219 220 220 218 216 216 216 214 215 215 212 211 212 214 214 215 217 216 216 216 217 220 222 222 221 221 222 223 223 223 224 225 226 229 231 232 230 228 230 232
208 206 203 207 215 213 210 210 211 212 213 214 214 214 214 216 217 219 222 225 229 232 235 236 236 231 226 222 217 216 217 216 215 217 219 221 222 223 226 228 226 223 225 226 220 216 220 221 219 219 219 218 216 215 218 219 217 215 216 218 220 220 222 226 229 228 226 226 230 232 232 230 228 227 226 224 225 225 226 228 230 233 233 231 230 231
212 208 203 205 212 213 211 211 211 212 213 214 216 215 214 216 217 219 222 224 227 231 233 235 237 235 231 227 222 220 222 221 218 217 220 225 226 226 229 231 233 230 228 230 229 227 230 230 224 221 220 218 215 215 218 220 221 223 222 222 225 226 225 230 235 236 233 232 235 238 240 240 238 235 232 228 226 227 227 228 229 232 234 234 233 233
216 212 206 204 209 212 212 211 211 212 213 213 215 216 215 215 216 218 221 224 226 229 232 235 236 236 234 231 227 224 226 228 226 223 223 226 228 229 230 232 234 236 234 235 237 237 238 238 234 229 226 223 220 219 219 219 220 225 226 225 227 228 227 229 234 235 232 230 233 237 240 241 240 239 239 237 233 230 229 229 230 231 234 236 236 235
218 215 210 206 206 210 212 212 211 212 213 214 215 217 216 215 216 218 220 223 226 228 231 234 237 238 237 236 233 229 227 228 230 229 227 227 230 231 232 233 234 236 237 239 240 242 243 242 243 243 239 236 232 228 227 226 224 223 224 226 227 227 227 230 233 236 234 233 236 240 240 239 238 235 236 239 238 235 232 231 231 231 232 235 236 237
219 218 217 209 206 210 212 212 213 213 213 216 216 217 218 217 216 218 220 223 226 227 229 232 235 238 239 240 238 235 231 230 232 232 229 228 231 233 233 234 234 235 238 241 243 243 244 245 248 251 249 248 246 242 242 243 239 230 225 226 229 229 229 232 235 238 239 239 242 244 243 242 239 235 233 235 237 238 236 233 233 232 233 234 236 237
225 221 221 214 208 211 211 207 211 215 214 216 219 218 219 219 219 219 220 223 225 227 229 231 233 236 238 241 241 239 236 234 234 234 230 228 231 235 235 234 234 235 238 243 247 247 247 249 253 254 252 252 252 251 250 252 252 243 230 226 229 231 231 233 237 239 241 242 244 245 245 243 239 236 233 232 233 234 235 235 234 234 234 234 236 238
233 225 222 218 212 215 216 206 205 212 215 216 219 221 220 221 222 222 222 224 225 227 229 230 232 234 236 239 241 242 240 238 237 237 235 233 234 236 237 237 236 237 240 246 251 252 251 252 255 257 255 253 253 253 252 251 252 250 238 230 231 233 234 236 240 242 244 245 246 248 249 249 245 240 236 233 232 231 231 233 234 234 234 234 234 236
235 232 225 221 216 218 224 218 204 206 212 214 217 222 223 223 224 225 225 226 227 228 230 231 232 234 236 238 239 241 243 242 241 241 241 241 240 241 241 242 242 242 245 252 256 254 252 252 255 259 258 254 251 250 249 249 248 247 243 238 237 238 238 240 243 244 245 246 246 247 249 250 250 249 243 236 234 234 232 231 233 235 236 235 234 234
230 233 231 225 220 220 228 231 220 207 207 211 214 219 224 226 227 228 228 229 230 230 231 233 234 234 236 237 239 240 241 243 244 244 244 244 245 245 246 247 247 248 250 255 257 254 251 250 252 255 254 251 247 244 242 241 241 240 238 237 237 237 237 238 240 241 241 242 244 246 248 249 251 252 248 240 237 237 235 232 232 234 236 235 235 235
230 231 234 231 226 223 228 237 237 225 212 210 213 217 221 226 230 231 232 233 234 233 232 234 235 236 237 237 239 240 240 240 243 245 246 246 247 249 250 251 251 252 254 255 254 250 248 248 249 250 249 246 243 241 240 238 235 233 229 229 232 235 235 235 237 238 239 240 242 245 250 252 253 254 251 244 239 238 237 234 232 232 233 233 234 235
234 231 233 234 232 229 231 237 244 241 226 213 212 216 219 224 228 232 234 236 237 238 236 236 236 237 238 238 238 240 242 242 242 244 246 248 249 251 253 254 255 255 255 253 249 245 244 245 245 244 244 244 243 243 244 243 239 234 229 228 231 235 236 237 239 241 241 241 243 246 251 254 254 254 254 251 245 240 239 239 237 235 233 232 232 233
239 236 234 233 233 234 235 239 244 245 237 223 216 216 218 222 225 229 233 235 236 238 239 238 238 239 239 239 239 240 242 243 244 245 246 248 250 252 253 254 255 255 254 250 244 240 240 242 243 241 240 242 243 244 245 245 241 236 233 232 234 236 238 239 241 243 245 246 247 248 250 252 252 254 257 260 255 245 240 242 242 239 236 234 233 232
242 241 239 237 234 235 238 240 244 245 243 238 229 220 218 221 224 226 229 231 231 233 235 236 237 238 240 241 241 241 242 244 245 246 247 248 249 251 251 251 251 253 254 251 245 240 238 239 242 241 239 239 240 240 242 242 239 236 233 233 234 236 237 238 240 242 243 246 246 245 245 246 250 257 261 268 268 255 243 240 241 241 239 237 235 233
243 240 240 239 237 238 239 240 244 249 249 245 239 230 223 222 223 224 226 228 229 231 233 234 234 235 238 239 240 241 242 244 245 247 247 248 249 249 249 250 250 250 252 251 247 243 240 239 240 242 241 239 237 236 236 237 237 235 234 234 234 235 236 237 239 240 241 242 242 242 243 245 249 256 262 272 286 281 259 243 240 241 240 238 238 237
246 240 237 238 237 237 240 241 243 249 253 249 244 240 237 231 227 224 224 225 228 232 234 235 235 235 236 238 240 241 242 243 245 245 246 248 248 248 248 250 251 249 249 251 249 246 243 240 240 243 243 240 236 234 233 233 234 235 236 237 237 238 238 238 238 240 242 243 242 243 247 251 251 250 252 263 278 285 277 257 243 241 240 241 243 243
238 237 236 239 236 235 239 241 242 247 251 249 245 245 246 245 240 236 230 224 223 228 233 236 237 237 237 238 240 242 243 245 244 244 244 246 247 247 247 248 250 250 249 249 250 248 244 241 241 242 242 239 235 233 231 231 233 235 237 238 239 239 240 239 239 239 241 243 244 245 247 251 253 254 255 259 263 266 268 265 256 250 245 245 247 246
241 240 241 243 240 235 237 240 243 246 249 249 246 244 248 251 250 248 243 232 224 225 229 233 236 239 239 238 237 238 241 244 246 246 247 248 247 247 246 245 245 247 247 246 246 247 245 242 241 241 241 239 237 235 232 231 232 234 236 237 238 240 241 241 239 239 241 243 245 247 248 249 251 255 261 264 262 259 259 260 265 272 264 250 248 245
253 249 247 247 246 242 239 240 243 244 246 248 247 244 245 250 250 248 247 242 235 232 231 231 233 237 239 239 237 235 236 238 239 239 240 242 242 242 242 242 242 243 243 243 243 245 244 243 243 242 241 240 239 237 235 233 232 233 235 237 238 240 241 243 242 242 243 244 246 249 251 252 252 253 256 260 259 257 258 263 264 259 253 248 247 245
263 258 254 254 253 250 247 245 244 243 243 243 245 246 245 245 245 244 243 242 241 239 237 235 234 235 238 239 239 237 236 237 237 236 235 237 237 233 233 237 239 238 239 241 241 242 242 241 241 241 241 240 239 238 237 236 235 234 236 238 240 240 241 243 244 244 245 245 246 247 249 252 253 251 249 251 254 254 256 264 266 260 258 263 266 264
268 263 256 256 258 259 256 252 248 246 245 242 242 243 244 244 242 241 240 238 238 238 239 239 237 235 236 238 238 238 238 238 239 239 237 239 239 231 228 232 234 234 236 239 241 241 241 241 240 240 239 238 236 235 235 236 236 236 237 239 241 242 242 243 244 245 246 246 246 246 247 249 251 250 247 247 250 251 252 257 262 263 264 269 270 267
271 269 265 261 260 260 260 259 256 253 249 245 241 239 240 243 243 239 236 235 235 236 238 240 241 238 235 236 238 239 240 240 241 240 237 239 243 242 237 235 237 236 236 238 240 241 240 240 240 240 239 238 237 237 236 236 237 238 239 240 241 242 243 244 244 245 246 246 247 246 245 246 247 247 247 246 247 249 251 253 256 257 259 261 262 261
269 269 270 268 267 265 262 259 259 258 254 251 247 242 239 239 239 237 234 234 234 234 235 238 240 241 240 238 238 239 240 241 240 238 236 237 241 244 242 240 242 242 242 240 240 239 240 239 239 239 239 239 240 240 241 242 243 242 242 242 242 242 243 243 245 246 247 247 247 246 245 244 243 242 243 244 245 246 247 250 252 253 253 253 255 256
264 265 266 268 269 269 266 261 259 258 258 257 255 252 247 243 239 235 233 232 232 233 234 235 237 239 241 241 240 238 239 239 239 238 238 238 239 241 241 241 242 244 245 246 245 242 240 239 239 238 238 239 240 241 243 244 245 244 243 242 241 242 242 242 244 245 247 247 247 245 244 243 243 242 241 242 244 246 248 249 251 252 252 252 253 254
262 261 262 264 266 267 267 266 262 259 258 257 257 257 255 251 247 242 236 233 232 233 234 234 234 236 238 239 239 240 240 239 239 240 242 244 248 250 248 246 247 248 248 249 249 246 241 237 235 235 235 236 238 239 240 241 241 241 241 241 241 242 243 243 243 243 243 244 244 243 242 242 243 245 245 246 247 248 250 252 253 254 255 255 254 254
264 262 260 260 261 263 264 265 265 264 262 259 257 257 257 256 255 251 245 241 237 236 235 234 233 234 236 237 238 240 240 240 241 243 244 245 249 253 252 248 247 248 249 248 248 247 243 234 229 229 231 232 234 235 236 236 236 236 237 238 240 242 243 243 243 242 240 240 240 240 240 241 243 245 248 250 251 252 252 253 254 255 256 256 256 255
268 267 265 263 261 261 261 262 263 265 265 264 262 259 258 257 257 256 254 250 246 243 242 239 235 234 234 235 236 237 239 239 239 242 243 242 241 246 252 254 250 247 247 247 246 246 244 236 227 223 223 225 227 229 232 233 233 234 235 237 238 240 241 242 242 241 240 239 238 238 239 241 244 247 250 252 253 254 255 255 255 255 255 256 257 256
272 270 269 267 265 264 263 262 261 262 263 264 265 264 261 259 258 256 256 255 252 250 247 245 242 238 235 233 233 234 234 232 229 230 232 234 236 240 246 252 252 248 247 247 247 247 246 243 237 231 228 226 226 227 229 231 232 234 235 237 238 239 240 240 240 240 240 240 240 239 240 243 246 249 252 254 254 255 256 256 257 257 256 255 256 256
275 273 271 268 266 265 264 263 262 261 261 261 262 263 263 262 261 258 256 254 253 252 251 249 247 244 240 237 236 237 235 232 231 231 230 228 230 233 234 237 242 244 244 244 245 247 248 247 246 245 244 243 240 237 236 235 235 235 235 236 237 238 239 239 239 239 239 240 240 240 242 245 248 250 252 254 255 256 256 256 257 257 257 256 256 256